Retour au catalogue

STARLINK-34518

ActifCommunicationsVLEO
NORAD 64480·PAYLOAD·🇺🇸 United States

Lancé Jun 23, 2025 depuis Cape Canaveral Space Force Station

Loading…

Prochains Passages (prochaines 24 heures)

TLE

FraisSource: CelesTrak SupGP

Époque: Sep 15, 2026, 02:14 UTC

1 64480C 25133J   26258.09354167  .00048058  00000+0  14200-2 0  2585
2 64480  53.1569 314.8315 0001229  94.0504  68.6961 15.34364438    12

Suivez STARLINK-34518 en temps réel avec AllMySat

Download on the App Store